Location: Izdebno
(52.6670°N, 16.2170°E)
Time: 20:32:43
(UTC+02:00)

Vanguard 1 - Visible Passes

Search period start: 17 July 2024 00:00
Search period end: 27 July 2024 00:00
Orbit: 650 x 3826 km, 34.3° (Epoch: 15 July)

Date Brightness Start Highest point End Pass type
(mag) Time Alt. Az. Time Alt. Az. Time Alt. Az.
17 Jul 13.7 04:08:57 10° SSW 04:26:21 29° SSE 04:42:03 10° E visible
18 Jul 13.9 02:14:45 10° SSE 02:24:28 15° SE 02:34:14 10° ESE visible
19 Jul 13.7 02:30:30 10° S 02:43:36 19° SE 02:56:50 10° E visible
20 Jul 13.6 02:47:37 10° S 03:02:49 24° SE 03:18:16 10° E visible
21 Jul 13.6 03:05:53 11° SSW 03:22:08 29° SE 03:39:06 10° E visible
22 Jul 13.7 01:12:19 10° SSE 01:20:43 14° SE 01:29:41 10° ESE visible
22 Jul 13.5 03:24:16 11° SSW 03:41:33 33° SSE 03:59:36 10° E visible
23 Jul 13.5 01:30:03 13° SSE 01:39:41 18° SE 01:52:35 10° E visible
23 Jul 13.4 03:42:38 10° SSW 04:01:04 37° SSE 04:19:53 10° E visible
24 Jul 13.4 01:48:23 15° S 01:58:45 23° SE 02:14:10 10° E visible
24 Jul 13.4 04:01:40 10° SW 04:20:41 41° SSE 04:40:01 10° ESE visible
25 Jul 13.3 02:06:41 17° S 02:17:54 28° SE 02:35:07 10° E visible
26 Jul 13.6 00:12:23 11° SE 00:17:12 12° ESE 00:23:30 10° ESE visible
26 Jul 13.2 02:24:57 18° SSW 02:37:12 32° SSE 02:55:43 10° E visible
